| time (UTC) | temp C | wind direction | speed KPH | gust KPH | rain 1hr cm | rain 24hr cm | rain mn cm | humidity % | barometer mb |
| 20260906234908 | 35 | 190 | 1.6 | 3.2 | 0.00 | 0.00 | 0.00 | 43 | 1012.3 |
| 20260906234402 | 36 | 213 | 3.2 | 3.2 | 0.00 | 0.00 | 0.00 | 42 | 1012.2 |
| 20260906233902 | 36 | 193 | 1.6 | 1.6 | 0.00 | 0.00 | 0.00 | 43 | 1012.2 |
| 20260906233401 | 36 | 202 | 4.8 | 4.8 | 0.00 | 0.00 | 0.00 | 43 | 1012.3 |
| 20260906232855 | 36 | 82 | 3.2 | 4.8 | 0.00 | 0.00 | 0.00 | 43 | 1012.2 |
| 20260906232355 | 36 | 140 | 4.8 | 4.8 | 0.00 | 0.00 | 0.00 | 43 | 1012.0 |
| 20260906231850 | 36 | 181 | 0.0 | 1.6 | 0.00 | 0.00 | 0.00 | 42 | 1012.3 |
| 20260906231345 | 36 | 186 | 3.2 | 3.2 | 0.00 | 0.00 | 0.00 | 41 | 1012.3 |
| 20260906230844 | 36 | 134 | 4.8 | 9.7 | 0.00 | 0.00 | 0.00 | 40 | 1012.3 |
| 20260906230340 | 36 | 148 | 8.0 | 11.3 | 0.00 | 0.00 | 0.00 | 41 | 1012.2 |
| 20260906225838 | 36 | 167 | 1.6 | 3.2 | 0.00 | 0.00 | 0.00 | 40 | 1012.2 |
| 20260906225333 | 36 | 174 | 3.2 | 4.8 | 0.00 | 0.00 | 0.00 | 41 | 1012.3 |
| 20260906224829 | 36 | 153 | 0.0 | 1.6 | 0.00 | 0.00 | 0.00 | 40 | 1012.3 |
| 20260906224326 | 36 | 122 | 1.6 | 4.8 | 0.00 | 0.00 | 0.00 | 40 | 1012.2 |
| 20260906223821 | 36 | 154 | 1.6 | 3.2 | 0.00 | 0.00 | 0.00 | 40 | 1012.4 |
| 20260906223317 | 37 | 96 | 3.2 | 3.2 | 0.00 | 0.00 | 0.00 | 39 | 1012.5 |
| 20260906222815 | 37 | 211 | 4.8 | 4.8 | 0.00 | 0.00 | 0.00 | 39 | 1012.3 |
| 20260906222314 | 37 | 165 | 3.2 | 3.2 | 0.00 | 0.00 | 0.00 | 40 | 1012.2 |
| 20260906221812 | 37 | 166 | 6.4 | 8.0 | 0.00 | 0.00 | 0.00 | 40 | 1012.4 |
| 20260906221307 | 36 | 71 | 6.4 | 9.7 | 0.00 | 0.00 | 0.00 | 40 | 1012.6 |
| 20260906220803 | 37 | 182 | 1.6 | 3.2 | 0.00 | 0.00 | 0.00 | 39 | 1012.3 |
| 20260906220257 | 37 | 208 | 3.2 | 3.2 | 0.00 | 0.00 | 0.00 | 39 | 1012.5 |
| 20260906215757 | 37 | 233 | 3.2 | 3.2 | 0.00 | 0.00 | 0.00 | 40 | 1012.5 |
| 20260906215257 | 37 | 84 | 6.4 | 9.7 | 0.00 | 0.00 | 0.00 | 41 | 1012.4 |
| 20260906214755 | 36 | 132 | 3.2 | 4.8 | 0.00 | 0.00 | 0.00 | 42 | 1012.3 |
| 20260906214250 | 37 | 132 | 8.0 | 9.7 | 0.00 | 0.00 | 0.00 | 41 | 1012.5 |
| 20260906213749 | 37 | 135 | 4.8 | 4.8 | 0.00 | 0.00 | 0.00 | 40 | 1012.8 |
| 20260906213249 | 37 | 60 | 4.8 | 8.0 | 0.00 | 0.00 | 0.00 | 40 | 1012.6 |
| 20260906212746 | 38 | 183 | 3.2 | 3.2 | 0.00 | 0.00 | 0.00 | 40 | 1012.7 |
| 20260906212242 | 38 | 182 | 1.6 | 1.6 | 0.00 | 0.00 | 0.00 | 39 | 1013.0 |
| 20260906211742 | 37 | 196 | 1.6 | 3.2 | 0.00 | 0.00 | 0.00 | 41 | 1013.0 |
| 20260906211237 | 38 | 90 | 6.4 | 8.0 | 0.00 | 0.00 | 0.00 | 40 | 1013.0 |
| 20260906210732 | 38 | 217 | 3.2 | 3.2 | 0.00 | 0.00 | 0.00 | 40 | 1013.2 |
| 20260906210227 | 38 | 193 | 4.8 | 8.0 | 0.00 | 0.00 | 0.00 | 43 | 1013.1 |
| 20260906205721 | 38 | 217 | 1.6 | 1.6 | 0.00 | 0.00 | 0.00 | 40 | 1013.2 |
| 20260906205218 | 37 | 162 | 3.2 | 4.8 | 0.00 | 0.00 | 0.00 | 41 | 1013.0 |
| 20260906204713 | 37 | 95 | 3.2 | 4.8 | 0.00 | 0.00 | 0.00 | 42 | 1013.1 |
| 20260906204212 | 37 | 94 | 3.2 | 4.8 | 0.00 | 0.00 | 0.00 | 42 | 1013.2 |
| 20260906203712 | 36 | 48 | 1.6 | 1.6 | 0.00 | 0.00 | 0.00 | 43 | 1013.4 |
| 20260906203207 | 36 | 175 | 1.6 | 1.6 | 0.00 | 0.00 | 0.00 | 44 | 1013.5 |
| 20260906202704 | 36 | 163 | 3.2 | 4.8 | 0.00 | 0.00 | 0.00 | 45 | 1013.5 |
| 20260906202203 | 37 | 140 | 3.2 | 3.2 | 0.00 | 0.00 | 0.00 | 43 | 1013.5 |
| 20260906201659 | 37 | 193 | 1.6 | 1.6 | 0.00 | 0.00 | 0.00 | 43 | 1013.6 |
| 20260906201157 | 37 | 192 | 4.8 | 8.0 | 0.00 | 0.00 | 0.00 | 42 | 1013.7 |
| 20260906200654 | 37 | 103 | 3.2 | 3.2 | 0.00 | 0.00 | 0.00 | 44 | 1013.7 |
| 20260906200149 | 37 | 111 | 6.4 | 8.0 | 0.00 | 0.00 | 0.00 | 43 | 1013.8 |
| 20260906195644 | 36 | 145 | 4.8 | 4.8 | 0.00 | 0.00 | 0.00 | 44 | 1013.8 |
| 20260906195141 | 37 | 146 | 9.7 | 11.3 | 0.00 | 0.00 | 0.00 | 43 | 1013.8 |
| 20260906194637 | 38 | 215 | 1.6 | 1.6 | 0.00 | 0.00 | 0.00 | 43 | 1013.8 |
| 20260906194132 | 37 | 99 | 1.6 | 3.2 | 0.00 | 0.00 | 0.00 | 44 | 1013.6 |
| 20260906193626 | 37 | 89 | 3.2 | 8.0 | 0.00 | 0.00 | 0.00 | 44 | 1014.0 |
| 20260906193121 | 37 | 184 | 3.2 | 3.2 | 0.00 | 0.00 | 0.00 | 43 | 1014.0 |
| 20260906192617 | 37 | 183 | 4.8 | 4.8 | 0.00 | 0.00 | 0.00 | 43 | 1014.1 |
| 20260906192116 | 37 | 135 | 3.2 | 3.2 | 0.00 | 0.00 | 0.00 | 43 | 1014.1 |
| 20260906191611 | 37 | 191 | 3.2 | 4.8 | 0.00 | 0.00 | 0.00 | 44 | 1014.2 |
| 20260906191110 | 37 | 134 | 4.8 | 8.0 | 0.00 | 0.00 | 0.00 | 45 | 1014.3 |
| 20260906190605 | 37 | 97 | 4.8 | 8.0 | 0.00 | 0.00 | 0.00 | 44 | 1014.5 |
| 20260906190100 | 36 | 95 | 4.8 | 8.0 | 0.00 | 0.00 | 0.00 | 45 | 1014.4 |
| 20260906185559 | 37 | 182 | 3.2 | 4.8 | 0.00 | 0.00 | 0.00 | 44 | 1014.4 |
| 20260906185058 | 37 | 146 | 3.2 | 3.2 | 0.00 | 0.00 | 0.00 | 44 | 1014.5 |
| 20260906184553 | 37 | 124 | 1.6 | 3.2 | 0.00 | 0.00 | 0.00 | 45 | 1014.4 |
| 20260906184048 | 37 | 24 | 1.6 | 1.6 | 0.00 | 0.00 | 0.00 | 45 | 1014.5 |
| 20260906183544 | 37 | 173 | 3.2 | 3.2 | 0.00 | 0.00 | 0.00 | 45 | 1014.4 |
| 20260906183040 | 36 | 169 | 3.2 | 3.2 | 0.00 | 0.00 | 0.00 | 47 | 1014.5 |
| 20260906182535 | 36 | 188 | 3.2 | 8.0 | 0.00 | 0.00 | 0.00 | 47 | 1014.7 |
| 20260906182031 | 36 | 153 | 3.2 | 3.2 | 0.00 | 0.00 | 0.00 | 47 | 1014.5 |
| 20260906181526 | 36 | 194 | 3.2 | 3.2 | 0.00 | 0.00 | 0.00 | 47 | 1014.9 |
| 20260906181022 | 36 | 122 | 3.2 | 3.2 | 0.00 | 0.00 | 0.00 | 48 | 1014.5 |
| 20260906180516 | 36 | 67 | 9.7 | 12.9 | 0.00 | 0.00 | 0.00 | 47 | 1015.0 |
| 20260906180016 | 36 | 120 | 4.8 | 4.8 | 0.00 | 0.00 | 0.00 | 47 | 1015.0 |
| 20260906175514 | 37 | 189 | 3.2 | 3.2 | 0.00 | 0.00 | 0.00 | 47 | 1015.2 |
| 20260906175009 | 36 | 179 | 0.0 | 1.6 | 0.00 | 0.00 | 0.00 | 48 | 1015.3 |
| 20260906174508 | 36 | 151 | 3.2 | 4.8 | 0.00 | 0.00 | 0.00 | 49 | 1015.2 |
| 20260906174003 | 35 | 181 | 3.2 | 3.2 | 0.00 | 0.00 | 0.00 | 49 | 1015.4 |
| 20260906173457 | 34 | 56 | 4.8 | 8.0 | 0.00 | 0.00 | 0.00 | 52 | 1015.6 |
| 20260906172952 | 34 | 166 | 0.0 | 0.0 | 0.00 | 0.00 | 0.00 | 53 | 1015.7 |
| 20260906172447 | 34 | 193 | 1.6 | 1.6 | 0.00 | 0.00 | 0.00 | 55 | 1015.9 |
| 20260906171943 | 35 | 180 | 1.6 | 1.6 | 0.00 | 0.00 | 0.00 | 54 | 1015.7 |
| 20260906171437 | 35 | 165 | 1.6 | 1.6 | 0.00 | 0.00 | 0.00 | 52 | 1015.8 |
| 20260906170933 | 35 | 152 | 4.8 | 8.0 | 0.00 | 0.00 | 0.00 | 52 | 1015.9 |
| 20260906170429 | 36 | 175 | 1.6 | 1.6 | 0.00 | 0.00 | 0.00 | 51 | 1016.2 |
| 20260906165925 | 35 | 189 | 0.0 | 1.6 | 0.00 | 0.00 | 0.00 | 52 | 1016.3 |
| 20260906165425 | 35 | 157 | 3.2 | 3.2 | 0.00 | 0.00 | 0.00 | 54 | 1016.3 |
| 20260906164920 | 35 | 217 | 4.8 | 4.8 | 0.00 | 0.00 | 0.00 | 53 | 1016.1 |
| 20260906164419 | 34 | 170 | 3.2 | 4.8 | 0.00 | 0.00 | 0.00 | 55 | 1016.2 |
| 20260906163916 | 35 | 180 | 1.6 | 1.6 | 0.00 | 0.00 | 0.00 | 54 | 1016.2 |
| 20260906163411 | 33 | 124 | 0.0 | 1.6 | 0.00 | 0.00 | 0.00 | 56 | 1016.4 |
| 20260906162909 | 34 | 32 | 3.2 | 3.2 | 0.00 | 0.00 | 0.00 | 55 | 1016.4 |
| 20260906162407 | 33 | 139 | 3.2 | 3.2 | 0.00 | 0.00 | 0.00 | 56 | 1016.4 |
| 20260906161903 | 33 | 22 | 8.0 | 11.3 | 0.00 | 0.00 | 0.00 | 57 | 1015.9 |
| 20260906161401 | 33 | 105 | 1.6 | 1.6 | 0.00 | 0.00 | 0.00 | 58 | 1016.2 |
| 20260906160900 | 33 | 164 | 3.2 | 3.2 | 0.00 | 0.00 | 0.00 | 58 | 1016.2 |
| 20260906160354 | 33 | 108 | 1.6 | 1.6 | 0.00 | 0.00 | 0.00 | 60 | 1016.3 |
| 20260906155853 | 33 | 54 | 3.2 | 3.2 | 0.00 | 0.00 | 0.00 | 59 | 1016.2 |
| 20260906155347 | 33 | 167 | 1.6 | 3.2 | 0.00 | 0.00 | 0.00 | 60 | 1016.1 |
| 20260906154844 | 32 | 113 | 4.8 | 4.8 | 0.00 | 0.00 | 0.00 | 61 | 1016.3 |
| 20260906154337 | 33 | 198 | 0.0 | 0.0 | 0.00 | 0.00 | 0.00 | 61 | 1016.4 |
| 20260906153830 | 32 | 194 | 0.0 | 1.6 | 0.00 | 0.00 | 0.00 | 62 | 1016.2 |
| 20260906153324 | 33 | 128 | 3.2 | 3.2 | 0.00 | 0.00 | 0.00 | 61 | 1016.1 |
| 20260906152820 | 32 | 186 | 3.2 | 3.2 | 0.00 | 0.00 | 0.00 | 63 | 1016.2 |
| 20260906152315 | 32 | 190 | 1.6 | 1.6 | 0.00 | 0.00 | 0.00 | 64 | 1016.2 |
| 20260906151814 | 32 | 146 | 0.0 | 1.6 | 0.00 | 0.00 | 0.00 | 63 | 1016.3 |
| 20260906151310 | 32 | 186 | 0.0 | 0.0 | 0.00 | 0.00 | 0.00 | 66 | 1016.1 |
| 20260906150805 | 31 | 185 | 1.6 | 1.6 | 0.00 | 0.00 | 0.00 | 66 | 1016.1 |
| 20260906150301 | 31 | 195 | 1.6 | 1.6 | 0.00 | 0.00 | 0.00 | 66 | 1015.9 |
| 20260906145800 | 32 | 83 | 1.6 | 1.6 | 0.00 | 0.00 | 0.00 | 66 | 1015.9 |
| 20260906145258 | 31 | 201 | 3.2 | 3.2 | 0.00 | 0.00 | 0.00 | 66 | 1015.8 |
| 20260906144754 | 31 | 199 | 1.6 | 3.2 | 0.00 | 0.00 | 0.00 | 67 | 1015.8 |
| 20260906144248 | 31 | 178 | 0.0 | 0.0 | 0.00 | 0.00 | 0.00 | 67 | 1015.8 |
| 20260906143748 | 31 | 187 | 0.0 | 1.6 | 0.00 | 0.00 | 0.00 | 68 | 1015.6 |
| 20260906143245 | 30 | 152 | 0.0 | 1.6 | 0.00 | 0.00 | 0.00 | 70 | 1015.9 |
| 20260906142744 | 30 | 171 | 1.6 | 1.6 | 0.00 | 0.00 | 0.00 | 71 | 1015.8 |
| 20260906142240 | 30 | 114 | 0.0 | 1.6 | 0.00 | 0.00 | 0.00 | 71 | 1015.9 |
| 20260906141738 | 30 | 209 | 1.6 | 1.6 | 0.00 | 0.00 | 0.00 | 71 | 1015.8 |
| 20260906141234 | 30 | 147 | 1.6 | 1.6 | 0.00 | 0.00 | 0.00 | 71 | 1015.8 |
| 20260906140733 | 30 | 116 | 1.6 | 1.6 | 0.00 | 0.00 | 0.00 | 73 | 1015.7 |
| 20260906140228 | 30 | 192 | 1.6 | 1.6 | 0.00 | 0.00 | 0.00 | 73 | 1015.7 |
| 20260906135724 | 29 | 136 | 1.6 | 1.6 | 0.00 | 0.00 | 0.00 | 73 | 1015.6 |
| 20260906135221 | 29 | 173 | 1.6 | 1.6 | 0.00 | 0.00 | 0.00 | 74 | 1015.5 |
| 20260906134716 | 29 | 134 | 0.0 | 1.6 | 0.00 | 0.00 | 0.00 | 74 | 1015.6 |
| 20260906134211 | 29 | 166 | 3.2 | 3.2 | 0.00 | 0.00 | 0.00 | 74 | 1015.6 |
| 20260906133707 | 28 | 177 | 0.0 | 0.0 | 0.00 | 0.00 | 0.00 | 76 | 1015.7 |
| 20260906133202 | 28 | 180 | 1.6 | 1.6 | 0.00 | 0.00 | 0.00 | 76 | 1015.6 |
| 20260906132657 | 28 | 185 | 0.0 | 0.0 | 0.00 | 0.00 | 0.00 | 78 | 1015.8 |
| 20260906132153 | 27 | 124 | 0.0 | 0.0 | 0.00 | 0.00 | 0.00 | 80 | 1015.5 |
| 20260906131648 | 27 | 161 | 0.0 | 0.0 | 0.00 | 0.00 | 0.00 | 82 | 1015.6 |
| 20260906131143 | 27 | 111 | 1.6 | 1.6 | 0.00 | 0.00 | 0.00 | 82 | 1015.5 |
| 20260906130638 | 27 | 184 | 0.0 | 0.0 | 0.00 | 0.00 | 0.00 | 82 | 1015.7 |
| 20260906130133 | 27 | 180 | 0.0 | 0.0 | 0.00 | 0.00 | 0.00 | 84 | 1015.7 |
| 20260906125630 | 26 | 177 | 0.0 | 0.0 | 0.00 | 0.00 | 0.00 | 87 | 1015.5 |
| 20260906125124 | 26 | 172 | 0.0 | 0.0 | 0.00 | 0.00 | 0.00 | 87 | 1015.4 |
| 20260906124620 | 25 | 192 | 0.0 | 0.0 | 0.00 | 0.00 | 0.00 | 87 | 1015.3 |
| 20260906124115 | 25 | 193 | 0.0 | 0.0 | 0.00 | 0.00 | 0.00 | 87 | 1015.5 |
| 20260906123614 | 25 | 190 | 0.0 | 0.0 | 0.00 | 0.00 | 0.00 | 87 | 1015.3 |
| 20260906123109 | 25 | 163 | 0.0 | 1.6 | 0.00 | 0.00 | 0.00 | 87 | 1015.3 |
| 20260906122609 | 25 | 138 | 3.2 | 3.2 | 0.00 | 0.00 | 0.00 | 87 | 1015.4 |
| 20260906122105 | 25 | 151 | 0.0 | 0.0 | 0.00 | 0.00 | 0.00 | 87 | 1015.1 |
| 20260906121600 | 25 | 177 | 0.0 | 0.0 | 0.00 | 0.00 | 0.00 | 88 | 1015.1 |
| 20260906121057 | 25 | 181 | 0.0 | 0.0 | 0.00 | 0.00 | 0.00 | 88 | 1015.1 |
| 20260906120552 | 25 | 189 | 0.0 | 0.0 | 0.00 | 0.00 | 0.00 | 88 | 1015.2 |
| 20260906120049 | 25 | 191 | 0.0 | 0.0 | 0.00 | 0.00 | 0.00 | 88 | 1015.0 |
| 20260906115548 | 25 | 189 | 0.0 | 0.0 | 0.00 | 0.00 | 0.00 | 88 | 1015.1 |
| 20260906115044 | 25 | 192 | 0.0 | 0.0 | 0.00 | 0.00 | 0.00 | 88 | 1015.0 |
| 20260906114538 | 25 | 191 | 0.0 | 0.0 | 0.00 | 0.00 | 0.00 | 88 | 1014.9 |
| 20260906114034 | 25 | 179 | 0.0 | 0.0 | 0.00 | 0.00 | 0.00 | 88 | 1014.9 |
| 20260906113533 | 25 | 176 | 0.0 | 0.0 | 0.00 | 0.00 | 0.00 | 88 | 1015.0 |
| 20260906113028 | 25 | 188 | 0.0 | 0.0 | 0.00 | 0.00 | 0.00 | 88 | 1014.8 |
| 20260906112523 | 25 | 171 | 0.0 | 0.0 | 0.00 | 0.00 | 0.00 | 88 | 1014.8 |
| 20260906112020 | 25 | 186 | 0.0 | 0.0 | 0.00 | 0.00 | 0.00 | 88 | 1014.9 |
| 20260906111519 | 25 | 185 | 0.0 | 0.0 | 0.00 | 0.00 | 0.00 | 88 | 1014.7 |
| 20260906111014 | 25 | 186 | 0.0 | 0.0 | 0.00 | 0.00 | 0.00 | 88 | 1014.6 |
| 20260906110509 | 25 | 177 | 0.0 | 0.0 | 0.00 | 0.00 | 0.00 | 87 | 1014.5 |
| 20260906110007 | 25 | 176 | 0.0 | 0.0 | 0.00 | 0.00 | 0.00 | 87 | 1014.7 |
| 20260906105503 | 25 | 177 | 0.0 | 0.0 | 0.00 | 0.00 | 0.00 | 87 | 1014.4 |
| 20260906104959 | 25 | 177 | 0.0 | 0.0 | 0.00 | 0.00 | 0.00 | 87 | 1014.7 |
| 20260906104457 | 25 | 177 | 0.0 | 0.0 | 0.00 | 0.00 | 0.00 | 86 | 1014.7 |
| 20260906103956 | 25 | 176 | 0.0 | 0.0 | 0.00 | 0.00 | 0.00 | 87 | 1014.7 |
| 20260906103455 | 25 | 180 | 0.0 | 0.0 | 0.00 | 0.00 | 0.00 | 87 | 1014.8 |
| 20260906102950 | 25 | 180 | 0.0 | 0.0 | 0.00 | 0.00 | 0.00 | 87 | 1014.5 |
| 20260906102450 | 25 | 179 | 0.0 | 0.0 | 0.00 | 0.00 | 0.00 | 87 | 1014.6 |
| 20260906101944 | 25 | 186 | 0.0 | 0.0 | 0.00 | 0.00 | 0.00 | 86 | 1014.4 |
| 20260906101440 | 25 | 186 | 0.0 | 0.0 | 0.00 | 0.00 | 0.00 | 86 | 1014.3 |
| 20260906100935 | 25 | 186 | 0.0 | 0.0 | 0.00 | 0.00 | 0.00 | 86 | 1014.3 |
| 20260906100430 | 25 | 186 | 0.0 | 0.0 | 0.00 | 0.00 | 0.00 | 86 | 1014.3 |
| 20260906095930 | 25 | 186 | 0.0 | 0.0 | 0.00 | 0.00 | 0.00 | 86 | 1014.1 |
| 20260906095426 | 25 | 186 | 0.0 | 0.0 | 0.00 | 0.00 | 0.00 | 86 | 1014.2 |
| 20260906094926 | 25 | 187 | 0.0 | 0.0 | 0.00 | 0.00 | 0.00 | 86 | 1014.0 |
| 20260906094414 | 25 | 187 | 0.0 | 0.0 | 0.00 | 0.00 | 0.00 | 86 | 1013.9 |
| 20260906093905 | 25 | 187 | 0.0 | 0.0 | 0.00 | 0.00 | 0.00 | 85 | 1013.9 |
| 20260906093402 | 25 | 187 | 0.0 | 0.0 | 0.00 | 0.00 | 0.00 | 84 | 1013.9 |
| 20260906092900 | 26 | 187 | 0.0 | 0.0 | 0.00 | 0.00 | 0.00 | 84 | 1014.1 |
| 20260906092355 | 26 | 187 | 0.0 | 0.0 | 0.00 | 0.00 | 0.00 | 84 | 1013.9 |
| 20260906091850 | 26 | 188 | 0.0 | 0.0 | 0.00 | 0.00 | 0.00 | 83 | 1014.0 |
| 20260906091347 | 26 | 184 | 0.0 | 0.0 | 0.00 | 0.00 | 0.00 | 82 | 1014.0 |
| 20260906090843 | 26 | 184 | 0.0 | 0.0 | 0.00 | 0.00 | 0.00 | 82 | 1014.0 |
| 20260906090342 | 26 | 182 | 0.0 | 0.0 | 0.00 | 0.00 | 0.00 | 81 | 1013.9 |
| 20260906085836 | 26 | 172 | 0.0 | 0.0 | 0.00 | 0.00 | 0.00 | 81 | 1014.0 |
| 20260906085335 | 26 | 181 | 0.0 | 0.0 | 0.00 | 0.00 | 0.00 | 81 | 1013.9 |
| 20260906084831 | 26 | 192 | 0.0 | 0.0 | 0.00 | 0.00 | 0.00 | 80 | 1013.8 |
| 20260906084330 | 27 | 189 | 0.0 | 0.0 | 0.00 | 0.00 | 0.00 | 80 | 1013.8 |
| 20260906083825 | 27 | 199 | 0.0 | 0.0 | 0.00 | 0.00 | 0.00 | 79 | 1013.8 |
| 20260906083320 | 27 | 186 | 0.0 | 0.0 | 0.00 | 0.00 | 0.00 | 79 | 1013.7 |
| 20260906082815 | 27 | 192 | 0.0 | 0.0 | 0.00 | 0.00 | 0.00 | 78 | 1013.9 |
| 20260906082310 | 27 | 192 | 0.0 | 0.0 | 0.00 | 0.00 | 0.00 | 78 | 1013.9 |
| 20260906081806 | 27 | 194 | 0.0 | 0.0 | 0.00 | 0.00 | 0.00 | 78 | 1013.8 |
| 20260906081302 | 27 | 202 | 1.6 | 1.6 | 0.00 | 0.00 | 0.00 | 78 | 1013.6 |
| 20260906080758 | 27 | 125 | 0.0 | 1.6 | 0.00 | 0.00 | 0.00 | 77 | 1013.8 |
| 20260906080254 | 27 | 188 | 0.0 | 1.6 | 0.00 | 0.00 | 0.00 | 77 | 1014.0 |
| 20260906075747 | 27 | 188 | 0.0 | 0.0 | 0.00 | 0.00 | 0.00 | 77 | 1014.1 |
| 20260906075242 | 27 | 168 | 0.0 | 1.6 | 0.00 | 0.00 | 0.00 | 77 | 1013.8 |
| 20260906074737 | 27 | 189 | 1.6 | 1.6 | 0.00 | 0.00 | 0.00 | 77 | 1013.9 |
| 20260906074236 | 27 | 226 | 1.6 | 3.2 | 0.00 | 0.00 | 0.00 | 77 | 1014.1 |
| 20260906073736 | 27 | 195 | 1.6 | 1.6 | 0.00 | 0.00 | 0.00 | 76 | 1014.0 |
| 20260906073231 | 28 | 239 | 0.0 | 0.0 | 0.00 | 0.00 | 0.00 | 76 | 1014.0 |
| 20260906072727 | 28 | 204 | 1.6 | 3.2 | 0.00 | 0.00 | 0.00 | 76 | 1014.0 |
| 20260906072223 | 28 | 208 | 1.6 | 1.6 | 0.00 | 0.00 | 0.00 | 75 | 1013.9 |
| 20260906071719 | 28 | 187 | 0.0 | 0.0 | 0.00 | 0.00 | 0.00 | 75 | 1014.1 |
| 20260906071218 | 28 | 212 | 4.8 | 11.3 | 0.00 | 0.00 | 0.00 | 75 | 1014.0 |
| 20260906070715 | 28 | 208 | 0.0 | 1.6 | 0.00 | 0.00 | 0.00 | 75 | 1014.3 |
| 20260906070210 | 28 | 203 | 0.0 | 1.6 | 0.00 | 0.00 | 0.00 | 75 | 1014.2 |
| 20260906065710 | 28 | 201 | 4.8 | 4.8 | 0.00 | 0.00 | 0.00 | 74 | 1014.3 |
| 20260906065205 | 28 | 185 | 1.6 | 1.6 | 0.00 | 0.00 | 0.00 | 74 | 1014.3 |
| 20260906064701 | 28 | 185 | 1.6 | 4.8 | 0.00 | 0.00 | 0.00 | 74 | 1014.3 |
| 20260906064156 | 28 | 195 | 0.0 | 0.0 | 0.00 | 0.00 | 0.00 | 74 | 1014.3 |
| 20260906063651 | 28 | 246 | 3.2 | 4.8 | 0.00 | 0.00 | 0.00 | 74 | 1014.3 |
| 20260906063147 | 28 | 187 | 3.2 | 3.2 | 0.00 | 0.00 | 0.00 | 74 | 1014.4 |
| 20260906062642 | 28 | 198 | 0.0 | 1.6 | 0.00 | 0.00 | 0.00 | 74 | 1014.5 |
| 20260906062140 | 28 | 195 | 0.0 | 0.0 | 0.00 | 0.00 | 0.00 | 73 | 1014.3 |
| 20260906061637 | 28 | 193 | 1.6 | 3.2 | 0.00 | 0.00 | 0.00 | 74 | 1014.5 |
| 20260906061137 | 28 | 196 | 0.0 | 0.0 | 0.00 | 0.00 | 0.00 | 74 | 1014.5 |
| 20260906060634 | 28 | 193 | 0.0 | 0.0 | 0.00 | 0.00 | 0.00 | 74 | 1014.5 |
| 20260906060131 | 28 | 194 | 0.0 | 1.6 | 0.00 | 0.00 | 0.00 | 74 | 1014.6 |
| 20260906055626 | 28 | 182 | 0.0 | 1.6 | 0.00 | 0.00 | 0.00 | 73 | 1014.4 |
| 20260906055121 | 29 | 199 | 0.0 | 0.0 | 0.00 | 0.00 | 0.00 | 73 | 1014.4 |
| 20260906054616 | 29 | 184 | 0.0 | 0.0 | 0.00 | 0.00 | 0.00 | 73 | 1014.4 |
| 20260906054111 | 29 | 216 | 3.2 | 4.8 | 0.00 | 0.00 | 0.00 | 73 | 1014.5 |
| 20260906053608 | 29 | 200 | 0.0 | 1.6 | 0.00 | 0.00 | 0.00 | 73 | 1014.4 |
| 20260906053057 | 29 | 192 | 0.0 | 1.6 | 0.00 | 0.00 | 0.00 | 73 | 1014.4 |
| 20260906052552 | 29 | 187 | 0.0 | 0.0 | 0.00 | 0.00 | 0.00 | 73 | 1014.3 |
| 20260906052050 | 29 | 211 | 0.0 | 0.0 | 0.00 | 0.00 | 0.00 | 72 | 1014.3 |
| 20260906051545 | 29 | 186 | 0.0 | 1.6 | 0.00 | 0.00 | 0.00 | 72 | 1014.4 |
| 20260906051040 | 29 | 183 | 1.6 | 1.6 | 0.00 | 0.00 | 0.00 | 72 | 1014.3 |
| 20260906050535 | 30 | 194 | 0.0 | 0.0 | 0.00 | 0.00 | 0.00 | 71 | 1014.2 |
| 20260906050031 | 30 | 164 | 0.0 | 1.6 | 0.00 | 0.00 | 0.00 | 71 | 1014.3 |
| 20260906045529 | 30 | 195 | 3.2 | 3.2 | 0.00 | 0.00 | 0.00 | 70 | 1014.2 |
| 20260906045025 | 30 | 187 | 1.6 | 1.6 | 0.00 | 0.00 | 0.00 | 70 | 1014.4 |
| 20260906044520 | 30 | 164 | 0.0 | 1.6 | 0.00 | 0.00 | 0.00 | 69 | 1014.5 |
| 20260906044016 | 30 | 170 | 1.6 | 1.6 | 0.00 | 0.00 | 0.00 | 69 | 1014.4 |
| 20260906043510 | 30 | 182 | 1.6 | 1.6 | 0.00 | 0.00 | 0.00 | 69 | 1014.2 |
| 20260906043001 | 30 | 177 | 3.2 | 3.2 | 0.00 | 0.00 | 0.00 | 69 | 1014.2 |
| 20260906042500 | 30 | 167 | 4.8 | 4.8 | 0.00 | 0.00 | 0.00 | 69 | 1014.3 |
| 20260906041959 | 30 | 152 | 1.6 | 3.2 | 0.00 | 0.00 | 0.00 | 69 | 1014.3 |
| 20260906041456 | 30 | 180 | 0.0 | 0.0 | 0.00 | 0.00 | 0.00 | 68 | 1014.0 |
| 20260906040955 | 30 | 167 | 4.8 | 4.8 | 0.00 | 0.00 | 0.00 | 68 | 1014.2 |
| 20260906040450 | 30 | 193 | 0.0 | 0.0 | 0.00 | 0.00 | 0.00 | 67 | 1014.0 |
| 20260906035946 | 30 | 198 | 1.6 | 3.2 | 0.00 | 0.00 | 0.00 | 67 | 1014.2 |
| 20260906035441 | 30 | 157 | 1.6 | 3.2 | 0.00 | 0.00 | 0.00 | 67 | 1014.2 |
| 20260906034936 | 30 | 163 | 0.0 | 1.6 | 0.00 | 0.00 | 0.00 | 67 | 1014.1 |
| 20260906034431 | 30 | 175 | 3.2 | 3.2 | 0.00 | 0.00 | 0.00 | 67 | 1014.3 |
| 20260906033926 | 30 | 185 | 3.2 | 3.2 | 0.00 | 0.00 | 0.00 | 67 | 1014.1 |
| 20260906033421 | 30 | 200 | 1.6 | 1.6 | 0.00 | 0.00 | 0.00 | 66 | 1014.4 |
| 20260906032917 | 30 | 210 | 1.6 | 3.2 | 0.00 | 0.00 | 0.00 | 66 | 1014.4 |
| 20260906032413 | 30 | 183 | 0.0 | 0.0 | 0.00 | 0.00 | 0.00 | 66 | 1014.2 |
| 20260906031907 | 30 | 210 | 1.6 | 3.2 | 0.00 | 0.00 | 0.00 | 65 | 1014.2 |
| 20260906031402 | 31 | 155 | 3.2 | 4.8 | 0.00 | 0.00 | 0.00 | 65 | 1014.0 |
| 20260906030852 | 31 | 194 | 3.2 | 3.2 | 0.00 | 0.00 | 0.00 | 64 | 1014.3 |
| 20260906030346 | 31 | 114 | 1.6 | 3.2 | 0.00 | 0.00 | 0.00 | 64 | 1014.3 |
| 20260906025840 | 31 | 184 | 1.6 | 1.6 | 0.00 | 0.00 | 0.00 | 64 | 1014.1 |
| 20260906025335 | 31 | 162 | 1.6 | 3.2 | 0.00 | 0.00 | 0.00 | 64 | 1014.2 |
| 20260906024833 | 31 | 199 | 1.6 | 1.6 | 0.00 | 0.00 | 0.00 | 64 | 1014.2 |
| 20260906024333 | 31 | 191 | 3.2 | 3.2 | 0.00 | 0.00 | 0.00 | 64 | 1014.2 |
| 20260906023829 | 31 | 177 | 3.2 | 3.2 | 0.00 | 0.00 | 0.00 | 63 | 1014.1 |
| 20260906023324 | 31 | 182 | 1.6 | 1.6 | 0.00 | 0.00 | 0.00 | 63 | 1013.8 |
| 20260906022820 | 31 | 186 | 3.2 | 4.8 | 0.00 | 0.00 | 0.00 | 63 | 1014.0 |
| 20260906022315 | 31 | 185 | 3.2 | 4.8 | 0.00 | 0.00 | 0.00 | 63 | 1013.9 |
| 20260906021810 | 31 | 78 | 3.2 | 4.8 | 0.00 | 0.00 | 0.00 | 63 | 1013.7 |
| 20260906021309 | 31 | 230 | 3.2 | 3.2 | 0.00 | 0.00 | 0.00 | 63 | 1013.6 |
| 20260906020804 | 31 | 88 | 1.6 | 3.2 | 0.00 | 0.00 | 0.00 | 63 | 1013.5 |
| 20260906020258 | 31 | 238 | 1.6 | 3.2 | 0.00 | 0.00 | 0.00 | 62 | 1013.4 |
| 20260906015753 | 31 | 150 | 0.0 | 1.6 | 0.00 | 0.00 | 0.00 | 62 | 1013.5 |
| 20260906015251 | 31 | 171 | 1.6 | 1.6 | 0.00 | 0.00 | 0.00 | 62 | 1013.4 |
| 20260906014746 | 31 | 207 | 8.0 | 11.3 | 0.00 | 0.00 | 0.00 | 61 | 1013.4 |
| 20260906014242 | 31 | 177 | 3.2 | 4.8 | 0.00 | 0.00 | 0.00 | 61 | 1013.1 |
| 20260906013738 | 32 | 321 | 3.2 | 3.2 | 0.00 | 0.00 | 0.00 | 60 | 1013.1 |
| 20260906013238 | 32 | 204 | 4.8 | 4.8 | 0.00 | 0.00 | 0.00 | 60 | 1012.9 |
| 20260906012733 | 32 | 196 | 3.2 | 3.2 | 0.00 | 0.00 | 0.00 | 59 | 1012.9 |
| 20260906012227 | 32 | 161 | 3.2 | 3.2 | 0.00 | 0.00 | 0.00 | 59 | 1013.0 |
| 20260906011723 | 32 | 187 | 4.8 | 4.8 | 0.00 | 0.00 | 0.00 | 58 | 1012.8 |
| 20260906011217 | 32 | 147 | 1.6 | 3.2 | 0.00 | 0.00 | 0.00 | 58 | 1012.9 |
| 20260906010713 | 32 | 155 | 3.2 | 3.2 | 0.00 | 0.00 | 0.00 | 57 | 1012.6 |
| 20260906010209 | 32 | 204 | 4.8 | 4.8 | 0.00 | 0.00 | 0.00 | 57 | 1012.8 |
| 20260906005708 | 33 | 45 | 3.2 | 3.2 | 0.00 | 0.00 | 0.00 | 55 | 1012.7 |
| 20260906005203 | 33 | 119 | 6.4 | 9.7 | 0.00 | 0.00 | 0.00 | 55 | 1012.6 |
| 20260906004702 | 35 | 143 | 9.7 | 11.3 | 0.00 | 0.00 | 0.00 | 51 | 1012.6 |
| 20260906004156 | 35 | 150 | 4.8 | 4.8 | 0.00 | 0.00 | 0.00 | 45 | 1012.3 |
| 20260906003646 | 35 | 224 | 1.6 | 3.2 | 0.00 | 0.00 | 0.00 | 44 | 1012.4 |
| 20260906003142 | 35 | 145 | 0.0 | 1.6 | 0.00 | 0.00 | 0.00 | 45 | 1012.4 |
| 20260906002642 | 35 | 172 | 0.0 | 0.0 | 0.00 | 0.00 | 0.00 | 44 | 1012.4 |
| 20260906002137 | 35 | 130 | 1.6 | 1.6 | 0.00 | 0.00 | 0.00 | 44 | 1012.1 |
| 20260906001632 | 35 | 133 | 1.6 | 3.2 | 0.00 | 0.00 | 0.00 | 43 | 1012.3 |
| 20260906001131 | 36 | 181 | 0.0 | 0.0 | 0.00 | 0.00 | 0.00 | 43 | 1012.3 |
| 20260906000627 | 36 | 182 | 1.6 | 1.6 | 0.00 | 0.00 | 0.00 | 43 | 1012.2 |
| 20260906000123 | 36 | 97 | 0.0 | 1.6 | 0.00 | 0.00 | 0.00 | 42 | 1012.2 |
| 20260905235621 | 36 | 112 | 3.2 | 3.2 | 0.00 | 0.00 | 0.00 | 42 | 1012.0 |